IST,Max TemperatureF,Mean TemperatureF,Min TemperatureF,Max Dew PointF,MeanDew PointF,Min DewpointF,Max Humidity, Mean Humidity, Min Humidity, Max Sea Level PressureIn, Mean Sea Level PressureIn, Min Sea Level PressureIn, Max VisibilityMiles, Mean VisibilityMiles, Min VisibilityMiles, Max Wind SpeedMPH, Mean Wind SpeedMPH, Max Gust SpeedMPH,PrecipitationIn, CloudCover, Events, WindDirDegrees
2012-5-1,48,47,46,48,46,43,100,91,76,30.18,30.10,30.04,19,6,3,24,19,39,0.59,7,Rain,48
2012-5-2,52,48,43,48,46,44,100,90,70,30.26,30.21,30.12,12,6,3,13,8,,0.00,6,Rain,33
2012-5-3,52,47,41,46,44,37,100,87,65,30.14,29.97,29.83,19,7,5,14,8,,0.00,6,,34
2012-5-4,50,44,39,46,43,39,100,90,73,29.86,29.80,29.77,19,6,3,14,8,,0.00,6,Rain,13
2012-5-5,46,40,32,41,33,27,100,69,41,29.98,29.93,29.86,19,7,6,16,11,,0.00,4,Rain,62
2012-5-6,48,37,26,37,32,25,100,74,39,29.97,29.95,29.92,19,7,6,12,6,,0.00,5,,71
2012-5-7,56,46,37,48,42,36,100,82,52,29.92,29.72,29.62,16,6,4,24,13,,0.24,5,Rain,164
2012-5-8,54,46,39,48,43,37,100,88,67,29.71,29.64,29.59,19,7,6,15,5,,0.02,5,Rain,299
2012-5-9,51,42,33,46,40,32,100,85,70,29.75,29.70,29.56,19,6,2,17,11,,0.01,6,Rain,34
2012-5-10,51,48,44,50,48,45,100,98,87,29.80,29.57,29.47,12,3,0,14,9,,0.12,7,Fog-Rain,360
2012-5-11,52,46,39,45,40,36,100,80,57,30.63,30.23,29.83,6,6,4,20,13,36,0.08,3,Rain,302
2012-5-12,58,46,35,43,39,34,93,73,45,30.72,30.67,30.63,19,6,6,16,11,,0.00,3,Rain,269
2012-5-13,58,49,40,45,39,32,93,69,34,30.63,30.29,29.98,6,6,6,32,16,45,0.00,4,Rain,235
2012-5-14,55,48,42,46,40,36,93,74,50,30.00,29.93,29.89,19,7,6,26,18,43,0.08,3,Rain,264
2012-5-15,55,45,35,41,35,30,93,71,38,30.30,30.12,29.95,19,7,6,21,16,28,0.01,3,Rain,304
2012-5-16,51,43,35,43,37,33,93,73,43,30.33,30.27,30.18,19,6,6,13,9,,0.00,5,Rain,247
2012-5-17,51,47,42,45,42,39,100,86,70,30.18,29.98,29.86,19,7,6,15,7,,0.01,7,Rain,111
2012-5-18,52,47,42,48,44,41,100,89,69,29.85,29.79,29.77,12,6,6,18,11,29,0.01,6,Rain,43
2012-5-19,51,46,42,46,43,39,100,86,62,29.95,29.89,29.80,19,6,6,20,14,,0.00,5,Rain,56
2012-5-20,55,46,38,48,45,39,100,88,72,29.95,29.91,29.86,16,6,5,10,5,,0.00,6,,81
2012-5-21,60,53,46,50,46,43,100,79,49,29.92,29.88,29.86,19,6,6,13,7,,0.00,4,,121
2012-5-22,66,52,39,55,50,41,100,83,64,30.15,30.01,29.92,19,6,2,12,6,,0.00,4,Fog,130
2012-5-23,68,57,46,55,52,45,100,80,53,30.33,30.23,30.15,19,6,6,14,6,,0.00,3,Fog,182
2012-5-24,67,56,45,55,51,45,100,78,47,30.39,30.35,30.33,19,7,6,12,8,,0.00,4,,37
2012-5-25,68,58,48,59,53,46,100,80,46,30.35,30.25,30.15,19,5,2,21,8,,0.00,2,,61
2012-5-26,68,60,52,54,51,48,88,71,52,30.21,30.15,30.09,19,12,6,22,14,,0.00,1,,69
2012-5-27,67,58,48,54,51,46,94,74,53,30.12,30.08,30.04,19,10,6,13,8,,0.00,4,,62
2012-5-28,69,60,50,55,52,48,100,75,45,30.06,30.04,30.04,12,6,6,18,7,,0.00,1,,128
2012-5-29,62,56,50,54,51,48,94,80,67,30.08,30.05,30.01,19,7,6,10,6,,0.00,4,,170
2012-5-30,67,57,47,57,53,46,100,86,64,30.06,30.02,29.98,19,7,6,14,5,,0.00,6,Rain,218
2012-5-31,62,58,53,59,55,50,100,89,72,30.09,30.05,30.04,16,6,3,13,9,,0.08,6,Rain,259